^^
Turner Downs-Weather Station Historical Data
 
Daily Summary for February 16, 2019 Units:  English    Metric   Both
Daily Weekly Monthly Yearly Custom
  Current: High: Low: Average:
Temperature: 43.3 °F 59.4 °F 43.3 °F 54.8 °F
Dew Point: 41.1 °F 54.5 °F 41.1 °F 52.2 °F
Humidity: 92% 97% 80% 91%
Wind Speed: 6.0mph 15.0mph 0.0mph 2.3mph
Wind Gust: 14.0mph 27.0mph - -
WindEast - - ESE
Pressure: 29.80 in 29.80 in 29.71 in -
Precipitation: 1.19 in      
Historical Graphs
 
 
Tabular Data for February 16, 2019
Time Temperature Dew Point Pressure Wind Wind Speed Wind Gust Humidity Rainfall Rate (Hourly) solar
00:00 59.4 °F 53.2 °F 29.78 in Calm     80% 0.00 in WeatherDisplay:10.37 W/m2
00:04 59.3 °F 53.1 °F 29.78 in WSW 5.0 mph 4.6 mph 80% 0.00 in WeatherDisplay:10.37 W/m2
00:09 59.3 °F 53.5 °F 29.78 in WNW 4.6 mph 4.6 mph 81% 0.00 in WeatherDisplay:10.37 W/m2
00:14 59.2 °F 53.4 °F 29.78 in Calm     81% 0.00 in WeatherDisplay:10.37 W/m2
00:19 59.2 °F 53.4 °F 29.78 in Calm     81% 0.00 in WeatherDisplay:10.37 W/m2
00:24 59.2 °F 53.4 °F 29.78 in Calm     81% 0.00 in WeatherDisplay:10.37 W/m2
00:29 59.1 °F 53.3 °F 29.78 in Calm     81% 0.00 in WeatherDisplay:10.37 W/m2
00:34 59.1 °F 53.3 °F 29.78 in Calm     81% 0.00 in WeatherDisplay:10.37 W/m2
00:39 59.1 °F 53.6 °F 29.77 in Calm     82% 0.00 in WeatherDisplay:10.37 W/m2
00:45 59.1 °F 53.6 °F 29.78 in Calm   5.0 mph 82% 0.00 in WeatherDisplay:10.37 W/m2
00:49 59.0 °F 53.5 °F 29.77 in Calm     82% 0.00 in WeatherDisplay:10.37 W/m2
00:54 59.0 °F 53.5 °F 29.77 in Calm     82% 0.00 in WeatherDisplay:10.37 W/m2
01:00 58.9 °F 53.8 °F 29.77 in Calm     83% 0.00 in WeatherDisplay:10.37 W/m2
01:05 58.9 °F 53.7 °F 29.77 in Calm     83% 0.00 in WeatherDisplay:10.37 W/m2
01:09 58.8 °F 53.6 °F 29.77 in Calm     83% 0.00 in WeatherDisplay:10.37 W/m2
01:14 58.7 °F 53.5 °F 29.77 in Calm     83% 0.00 in WeatherDisplay:10.37 W/m2
01:19 58.7 °F 53.5 °F 29.77 in Calm     83% 0.00 in WeatherDisplay:10.37 W/m2
01:24 58.5 °F 53.7 °F 29.77 in Calm     84% 0.00 in WeatherDisplay:10.37 W/m2
01:30 58.4 °F 53.6 °F 29.77 in Calm     84% 0.00 in WeatherDisplay:10.37 W/m2
01:35 58.3 °F 53.5 °F 29.78 in Calm     84% 0.00 in WeatherDisplay:10.37 W/m2
01:39 58.2 °F 53.4 °F 29.78 in Calm     84% 0.00 in WeatherDisplay:10.37 W/m2
01:44 58.1 °F 53.3 °F 29.78 in Calm     84% 0.00 in WeatherDisplay:10.37 W/m2
01:49 58.0 °F 53.5 °F 29.77 in Calm     85% 0.00 in WeatherDisplay:10.37 W/m2
01:54 57.9 °F 53.4 °F 29.77 in Calm     85% 0.00 in WeatherDisplay:10.37 W/m2
02:00 57.8 °F 53.3 °F 29.77 in Calm     85% 0.00 in WeatherDisplay:10.37 W/m2
02:04 57.8 °F 53.6 °F 29.77 in Calm     86% 0.00 in WeatherDisplay:10.37 W/m2
02:09 57.7 °F 53.9 °F 29.77 in Calm     87% 0.00 in WeatherDisplay:10.37 W/m2
02:15 57.7 °F 53.9 °F 29.77 in Calm     87% 0.00 in WeatherDisplay:10.37 W/m2
02:20 57.6 °F 53.8 °F 29.77 in Calm     87% 0.00 in WeatherDisplay:10.37 W/m2
02:25 57.5 °F 53.7 °F 29.77 in Calm     87% 0.00 in WeatherDisplay:10.37 W/m2
02:30 57.4 °F 53.6 °F 29.77 in Calm     87% 0.00 in WeatherDisplay:10.37 W/m2
02:34 57.3 °F 53.8 °F 29.77 in Calm     88% 0.00 in WeatherDisplay:10.37 W/m2
02:40 57.2 °F 53.7 °F 29.77 in Calm     88% 0.00 in WeatherDisplay:10.37 W/m2
02:45 57.1 °F 53.6 °F 29.77 in Calm     88% 0.00 in WeatherDisplay:10.37 W/m2
02:49 57.0 °F 53.5 °F 29.76 in Calm     88% 0.00 in WeatherDisplay:10.37 W/m2
02:54 56.9 °F 53.7 °F 29.75 in Calm     89% 0.00 in WeatherDisplay:10.37 W/m2
02:59 56.8 °F 53.6 °F 29.75 in Calm     89% 0.00 in WeatherDisplay:10.37 W/m2
03:05 56.8 °F 53.6 °F 29.75 in Calm     89% 0.00 in WeatherDisplay:10.37 W/m2
03:09 56.7 °F 53.5 °F 29.74 in Calm     89% 0.00 in WeatherDisplay:10.37 W/m2
03:15 56.6 °F 53.4 °F 29.74 in Calm     89% 0.00 in WeatherDisplay:10.37 W/m2
03:20 56.6 °F 53.4 °F 29.74 in Calm     89% 0.00 in WeatherDisplay:10.37 W/m2
03:24 56.5 °F 53.6 °F 29.74 in Calm     90% 0.00 in WeatherDisplay:10.37 W/m2
03:29 56.4 °F 53.5 °F 29.74 in Calm     90% 0.00 in WeatherDisplay:10.37 W/m2
03:34 56.4 °F 53.5 °F 29.74 in Calm     90% 0.00 in WeatherDisplay:10.37 W/m2
03:39 56.3 °F 53.4 °F 29.74 in Calm     90% 0.00 in WeatherDisplay:10.37 W/m2
03:45 56.3 °F 53.4 °F 29.74 in Calm     90% 0.00 in WeatherDisplay:10.37 W/m2
03:49 56.2 °F 53.3 °F 29.74 in Calm     90% 0.00 in WeatherDisplay:10.37 W/m2
03:55 56.2 °F 53.3 °F 29.75 in Calm     90% 0.00 in WeatherDisplay:10.37 W/m2
04:00 56.1 °F 53.2 °F 29.75 in Calm     90% 0.00 in WeatherDisplay:10.37 W/m2
04:05 56.1 °F 53.2 °F 29.75 in Calm     90% 0.00 in WeatherDisplay:10.37 W/m2
04:10 56.0 °F 53.1 °F 29.75 in Calm     90% 0.00 in WeatherDisplay:10.37 W/m2
04:15 56.0 °F 53.1 °F 29.75 in Calm     90% 0.00 in WeatherDisplay:10.37 W/m2
04:20 56.0 °F 53.1 °F 29.75 in Calm     90% 0.00 in WeatherDisplay:10.37 W/m2
04:24 56.0 °F 53.4 °F 29.75 in Calm     91% 0.00 in WeatherDisplay:10.37 W/m2
04:30 55.9 °F 53.4 °F 29.75 in Calm     91% 0.01 in WeatherDisplay:10.37 W/m2
04:34 55.9 °F 53.3 °F 29.75 in Calm     91% 0.01 in WeatherDisplay:10.37 W/m2
04:39 55.9 °F 53.3 °F 29.75 in Calm     91% 0.01 in WeatherDisplay:10.37 W/m2
04:45 55.9 °F 53.3 °F 29.75 in Calm     91% 0.00 in WeatherDisplay:10.37 W/m2
04:49 55.8 °F 53.2 °F 29.75 in Calm     91% 0.02 in WeatherDisplay:10.37 W/m2
04:54 55.8 °F 53.2 °F 29.74 in Calm     91% 0.02 in WeatherDisplay:10.37 W/m2
04:59 55.8 °F 53.5 °F 29.74 in Calm     92% 0.03 in WeatherDisplay:10.37 W/m2
05:04 55.8 °F 53.5 °F 29.74 in Calm     92% 0.04 in WeatherDisplay:10.37 W/m2
05:09 55.7 °F 53.4 °F 29.74 in Calm     92% 0.05 in WeatherDisplay:10.37 W/m2
05:14 55.7 °F 53.7 °F 29.74 in Calm     93% 0.05 in WeatherDisplay:10.37 W/m2
05:19 55.7 °F 53.7 °F 29.74 in Calm     93% 0.06 in WeatherDisplay:10.37 W/m2
05:25 55.6 °F 53.6 °F 29.74 in Calm   2.0 mph 93% 0.02 in WeatherDisplay:10.37 W/m2
05:29 55.6 °F 53.6 °F 29.73 in Calm     93% 0.08 in WeatherDisplay:10.37 W/m2
05:34 55.5 °F 53.5 °F 29.73 in Calm     93% 0.08 in WeatherDisplay:10.37 W/m2
05:39 55.4 °F 53.7 °F 29.73 in Calm     94% 0.09 in WeatherDisplay:10.37 W/m2
05:44 55.3 °F 53.6 °F 29.73 in Calm     94% 0.11 in WeatherDisplay:10.37 W/m2
05:50 55.3 °F 53.6 °F 29.73 in Calm     94% 0.02 in WeatherDisplay:10.37 W/m2
05:55 55.2 °F 53.5 °F 29.73 in Calm     94% 0.02 in WeatherDisplay:10.37 W/m2
05:59 55.2 °F 53.5 °F 29.73 in Calm     94% 0.11 in WeatherDisplay:10.37 W/m2
06:05 55.1 °F 53.4 °F 29.73 in Calm     94% 0.00 in WeatherDisplay:10.37 W/m2
06:09 55.1 °F 53.4 °F 29.73 in Calm     94% 0.10 in WeatherDisplay:10.37 W/m2
06:15 55.1 °F 53.7 °F 29.73 in Calm     95% 0.00 in WeatherDisplay:10.37 W/m2
06:20 55.1 °F 53.7 °F 29.73 in Calm     95% 0.01 in WeatherDisplay:10.37 W/m2
06:25 55.1 °F 53.7 °F 29.73 in Calm     95% 0.00 in WeatherDisplay:10.37 W/m2
06:29 55.1 °F 53.7 °F 29.72 in Calm     95% 0.12 in WeatherDisplay:10.37 W/m2
06:34 55.0 °F 53.6 °F 29.73 in Calm     95% 0.11 in WeatherDisplay:10.37 W/m2
06:40 55.0 °F 53.6 °F 29.72 in Calm     95% 0.00 in WeatherDisplay:10.37 W/m2
06:44 55.0 °F 53.6 °F 29.72 in Calm     95% 0.09 in WeatherDisplay:10.37 W/m2
06:49 55.0 °F 53.6 °F 29.73 in Calm     95% 0.09 in WeatherDisplay:10.37 W/m2
06:54 55.0 °F 53.6 °F 29.73 in Calm     95% 0.09 in WeatherDisplay:10.37 W/m2
07:00 55.0 °F 53.9 °F 29.73 in Calm     96% 0.00 in WeatherDisplay:10.37 W/m2
07:05 55.0 °F 53.9 °F 29.73 in Calm     96% 0.00 in WeatherDisplay:10.37 W/m2
07:09 55.1 °F 54.0 °F 29.72 in Calm     96% 0.11 in WeatherDisplay:10.37 W/m2
07:15 55.2 °F 54.1 °F 29.72 in Calm     96% 0.00 in WeatherDisplay:10.37 W/m2
07:20 55.2 °F 54.0 °F 29.72 in Calm     96% 0.00 in WeatherDisplay:10.37 W/m2
07:25 55.1 °F 54.0 °F 29.72 in Calm     96% 0.00 in WeatherDisplay:10.37 W/m2
07:30 55.1 °F 54.0 °F 29.73 in Calm     96% 0.00 in WeatherDisplay:10.37 W/m2
07:34 55.1 °F 54.0 °F 29.72 in Calm     96% 0.11 in WeatherDisplay:10.37 W/m2
07:39 55.1 °F 54.0 °F 29.72 in Calm     96% 0.13 in WeatherDisplay:10.37 W/m2
07:44 55.1 °F 54.0 °F 29.72 in Calm     96% 0.13 in WeatherDisplay:10.37 W/m2
07:49 55.2 °F 54.1 °F 29.72 in Calm     96% 0.13 in WeatherDisplay:10.37 W/m2
07:54 55.3 °F 54.5 °F 29.73 in Calm     97% 0.13 in WeatherDisplay:10.37 W/m2
08:00 55.3 °F 54.5 °F 29.73 in Calm     97% 0.01 in WeatherDisplay:10.37 W/m2
08:05 55.3 °F 54.5 °F 29.74 in Calm     97% 0.09 in WeatherDisplay:10.37 W/m2
08:10 55.3 °F 54.5 °F 29.74 in Calm     97% 0.13 in WeatherDisplay:10.37 W/m2
08:14 55.3 °F 54.5 °F 29.74 in East 6.7 mph 8.1 mph 97% 0.32 in WeatherDisplay:10.37 W/m2
08:20 54.7 °F 53.6 °F 29.74 in East 2.0 mph 3.0 mph 96% 0.01 in WeatherDisplay:10.37 W/m2
08:24 54.1 °F 52.7 °F 29.73 in East 5.1 mph 5.8 mph 95% 0.42 in WeatherDisplay:10.37 W/m2
08:30 53.7 °F 52.3 °F 29.73 in East 5.0 mph 8.0 mph 95% 0.01 in WeatherDisplay:10.37 W/m2
08:34 53.2 °F 51.8 °F 29.73 in ESE 6.5 mph 5.8 mph 95% 0.47 in WeatherDisplay:10.37 W/m2
08:39 52.7 °F 51.0 °F 29.73 in East 4.3 mph 5.8 mph 94% 0.46 in WeatherDisplay:10.37 W/m2
08:45 52.4 °F 50.7 °F 29.73 in East 6.0 mph 14.0 mph 94% 0.01 in WeatherDisplay:10.37 W/m2
08:50 52.1 °F 50.4 °F 29.74 in ESE 7.0 mph 10.0 mph 94% 0.01 in WeatherDisplay:10.37 W/m2
08:55 51.8 °F 50.1 °F 29.74 in East 7.0 mph 10.0 mph 94% 0.01 in WeatherDisplay:10.37 W/m2
08:59 51.6 °F 49.9 °F 29.75 in East 0.8 mph 4.6 mph 94% 0.52 in WeatherDisplay:10.37 W/m2
09:05 51.5 °F 50.1 °F 29.74 in East 7.0 mph 9.0 mph 95% 0.00 in WeatherDisplay:10.37 W/m2
09:10 51.3 °F 49.9 °F 29.73 in East 7.0 mph 12.0 mph 95% 0.01 in WeatherDisplay:10.37 W/m2
09:14 51.2 °F 49.8 °F 29.71 in ESE 11.5 mph 12.0 mph 95% 0.41 in WeatherDisplay:10.37 W/m2
09:20 51.1 °F 49.7 °F 29.71 in ESE 9.0 mph 12.0 mph 95% 0.05 in WeatherDisplay:10.37 W/m2
09:24 51.1 °F 50.0 °F 29.73 in ESE 8.6 mph 16.5 mph 96% 0.35 in WeatherDisplay:10.37 W/m2
09:29 51.1 °F 50.0 °F 29.73 in East 9.0 mph 8.1 mph 96% 0.32 in WeatherDisplay:10.37 W/m2
09:35 51.0 °F 49.9 °F 29.73 in East 6.0 mph 10.0 mph 96% 0.02 in WeatherDisplay:10.37 W/m2
09:39 51.0 °F 49.9 °F 29.73 in East 4.0 mph 3.5 mph 96% 0.29 in WeatherDisplay:10.37 W/m2
09:45 51.0 °F 49.9 °F 29.73 in East 7.0 mph 10.0 mph 96% 0.00 in WeatherDisplay:10.37 W/m2
09:49 51.0 °F 49.9 °F 29.73 in East 5.1 mph 4.6 mph 96% 0.26 in WeatherDisplay:10.37 W/m2
09:54 51.0 °F 49.9 °F 29.73 in East 2.9 mph 3.5 mph 96% 0.23 in WeatherDisplay:10.37 W/m2
09:59 51.1 °F 50.0 °F 29.74 in ENE 3.3 mph 4.6 mph 96% 0.21 in WeatherDisplay:10.37 W/m2
10:04 51.1 °F 50.0 °F 29.74 in ESE 6.2 mph 5.8 mph 96% 0.18 in WeatherDisplay:10.37 W/m2
10:10 51.1 °F 50.0 °F 29.73 in East 7.0 mph 14.0 mph 96% 0.03 in WeatherDisplay:10.37 W/m2
10:15 51.1 °F 50.0 °F 29.73 in East 8.0 mph 10.0 mph 96% 0.00 in WeatherDisplay:10.37 W/m2
10:19 51.0 °F 49.9 °F 29.74 in East 10.1 mph 13.8 mph 96% 0.13 in WeatherDisplay:10.37 W/m2
10:25 51.0 °F 49.9 °F 29.74 in East 9.0 mph 12.0 mph 96% 0.00 in WeatherDisplay:10.37 W/m2
10:30 50.9 °F 49.8 °F 29.74 in East 6.0 mph 8.0 mph 96% 0.00 in WeatherDisplay:10.37 W/m2
10:34 50.8 °F 49.7 °F 29.75 in ESE 5.7 mph 6.0 mph 96% 0.10 in WeatherDisplay:10.37 W/m2
10:39 50.1 °F 48.7 °F 29.75 in East 13.8 mph 13.8 mph 95% 0.10 in WeatherDisplay:10.37 W/m2
10:45 48.8 °F 46.9 °F 29.75 in East 13.0 mph 15.0 mph 93% 0.02 in WeatherDisplay:10.37 W/m2
10:50 47.7 °F 45.4 °F 29.76 in East 12.0 mph 18.0 mph 92% 0.01 in WeatherDisplay:10.37 W/m2
10:54 46.9 °F 44.7 °F 29.77 in ENE 12.3 mph 15.0 mph 92% 0.08 in WeatherDisplay:10.37 W/m2
10:59 46.1 °F 43.6 °F 29.78 in ENE 10.8 mph 16.1 mph 91% 0.07 in WeatherDisplay:10.37 W/m2
11:05 45.5 °F 43.3 °F 29.78 in East 8.0 mph 12.0 mph 92% 0.00 in WeatherDisplay:10.37 W/m2
11:09 44.9 °F 42.7 °F 29.79 in East 13.4 mph 15.0 mph 92% 0.04 in WeatherDisplay:10.37 W/m2
11:15 44.5 °F 42.4 °F 29.79 in ESE 14.0 mph 27.0 mph 92% 0.00 in WeatherDisplay:10.37 W/m2
11:20 44.0 °F 41.6 °F 29.79 in ESE 15.0 mph 21.0 mph 91% 0.00 in WeatherDisplay:10.37 W/m2
11:25 43.5 °F 41.1 °F 29.80 in East 14.0 mph 21.0 mph 91% 0.00 in WeatherDisplay:10.37 W/m2
11:30 43.3 °F 41.1 °F 29.80 in East 6.0 mph 14.0 mph 92% 0.00 in WeatherDisplay:10.37 W/m2
Raleigh, North Carolina, USA
Compliments of Weather Underground - 2.25 mb